Regional Weather Roundup
Issued by NWS

Home | Current Version | Previous Version | Text Only | Print | Product List | Glossary On
Versions: 1 2 3 4 5 6 7 8 9 10 11 12 13 14 15 16 17 18 19 20 21 22 23 24 25 26 27 28 29 30 31 32 33 34 35 36 37 38 39 40 41 42 43 44 45 46 47 48 49 50
632
ASUS45 KPSR 112210
RWRAZ

ARIZONA HOURLY REGIONAL WEATHER ROUNDUP
NATIONAL WEATHER SERVICE PHOENIX AZ
300 PM MST THU FEB 11 2016

NOTE: FAIR INDICATES FEW OR NO CLOUDS BELOW 12,000 FEET WITH NO
SIGNIFICANT WEATHER AND/OR OBSTRUCTIONS TO VISIBILITY.

AZZ001>003-036-112300-
NORTHWEST ARIZONA

CITY           SKY/WX    TMP DP  RH WIND       PRES   REMARKS
BULLHEAD CITY  SUNNY     77  25  14 N21G26    30.12F
KINGMAN        SUNNY     73  23  15 N6        30.21F
$$

AZZ004>008-015-016-018-112300-
NORTH CENTRAL ARIZONA

CITY           SKY/WX    TMP DP  RH WIND       PRES   REMARKS
GRAND CANYON   SUNNY     65  19  17 N5        30.35S
WILLIAMS       SUNNY     64  18  16 W12       30.39S
PRESCOTT       SUNNY     72   6   7 N5        30.26F
FLAGSTAFF      SUNNY     59  16  18 E7        30.36S
PAYSON         SUNNY     70  14  11 SW8G14    30.27F
PAGE           SUNNY     55  29  36 NE6       30.32F
$$

AZZ009>014-017-112300-
NORTHEAST ARIZONA

CITY           SKY/WX    TMP DP  RH WIND       PRES   REMARKS
WINSLOW        SUNNY     62  19  19 CALM      30.30F
SAINT JOHNS    SUNNY     63  12  13 CALM      30.30F
WINDOW ROCK    SUNNY     64   0   7 N7        30.33F
SHOW LOW       SUNNY     59  14  17 CALM      30.35F
$$

AZZ023-112300-
GREATER PHOENIX AREA

CITY           SKY/WX    TMP DP  RH WIND       PRES   REMARKS
PHOENIX        MOSUNNY   85  27  12 CALM      30.07F
BUCKEYE        SUNNY     79  32  18 SE3       30.11F
GLENDALE       SUNNY     81  32  17 CALM      30.10F
DEER VALLEY    SUNNY     80  28  15 VRB5      30.09F
SCOTTSDALE     SUNNY     81  27  14 SW6       30.11F
MESA-FALCON    SUNNY    N/A N/A N/A SE6       30.09F
MESA-GATEWAY   SUNNY     79  30  17 W5        30.11F
CHANDLER       SUNNY     79  28  15 S6        30.10F
$$

AZZ027-028-112300-
SOUTHWEST MARICOPA COUNTY AND PINAL COUNTY

CITY           SKY/WX    TMP DP  RH WIND       PRES   REMARKS
CASA GRANDE    SUNNY     79  28  15 CALM      30.11F
$$

AZZ503-504-507>509-112300-
SOUTHEAST ARIZONA

CITY           SKY/WX    TMP DP  RH WIND       PRES   REMARKS
TUCSON         SUNNY     83  16   8 VRB3      30.15F
RYAN FIELD     SUNNY     82  28  14 NW7       30.14F
NOGALES        SUNNY     81   6   5 VRB6      30.17F
SIERRA VISTA   SUNNY     75   3   6 CALM      30.23F
DOUGLAS        SUNNY     76   8   7 VRB5      30.21F
SAFFORD        SUNNY     74  21  13 VRB5      30.16F
$$

AZZ020-021-025-026-031-112300-
SOUTHWEST ARIZONA

CITY           SKY/WX    TMP DP  RH WIND       PRES   REMARKS
YUMA           MOSUNNY   86  25  11 N7        30.07F
$$

CAZ031-033-041-043-047-048-061-112300-
SOUTHERN CALIFORNIA

CITY           SKY/WX    TMP DP  RH WIND       PRES   REMARKS
DOWNTOWN L.A.  SUNNY     86  28  12 CALM      30.04F
L.A. AIRPORT   MOSUNNY   74  42  31 W10       30.06F
SAN DIEGO      SUNNY     83  24  11 NW9       30.05F
BURBANK        SUNNY     85  22  10 CALM      30.06F
ONTARIO        MOSUNNY   85  24  11 W6        30.07F
RIVERSIDE      SUNNY     87  24  10 W7        30.06F
PALM SPRINGS   SUNNY     83  25  12 VRB6      30.10F
EL CENTRO NAS  MOSUNNY   86  23  10 N6        30.08F
IMPERIAL       SUNNY     84  28  13 VRB3      30.07F
BLYTHE           N/A     82  32  16 MISG      30.10F
NEEDLES        SUNNY     80  25  13 N13       30.12F
$$

NVZ020-UTZ003-112300-
SOUTHERN NEVADA-UTAH

CITY           SKY/WX    TMP DP  RH WIND       PRES   REMARKS
LAS VEGAS      MOSUNNY   72  20  14 CALM      30.16F
SALT LAKE CITY PTSUNNY   33  27  78 NW7       30.43F HAZE    WCI  27
$$

NMZ009-TXZ055-112300-
NEW MEXICO-WEST TEXAS

CITY           SKY/WX    TMP DP  RH WIND       PRES   REMARKS
ALBUQUERQUE    MOSUNNY   65  15  14 W5        30.25F
EL PASO        SUNNY     71  17  12 CALM      30.20F
$$


........................KEY........................
SKY/WX - SKY CONDITION/WEATHER
TMP    - TEMPERATURE IN FAHRENHEIT
DP     - DEW POINT IN FAHRENHEIT
RH     - RELATIVE HUMIDITY IN PERCENT
WIND   - DIRECTION AND SPEED IN MILES PER HOUR (MPH)
VRB    - VARIABLE WIND DIRECTION
PRES   - MEAN SEA LEVEL PRESSURE IN INCHES OF MERCURY
         F - FALLING PRESSURE   R - RISING PRESSURE
         S - STEADY PRESSURE
VSB    - VISIBILITY IN MILES
HX     - HEAT INDEX IN FAHRENHEIT
WCI    - WIND CHILL INDEX IN FAHRENHEIT
TC     - TEMPERATURE IN CELSIUS WHICH IS ALSO KNOWN AS
         TEMPERATURE IN CENTIGRADE
AFB    - AIR FORCE BASE
         LUKE AFB IS LUKE AIR FORCE BASE
         DAVIS-MONTHAN IS DAVIS-MONTHAN AIR FORCE BASE
NAS    - NAVAL AIR STATION
         EL CENTRO NAS IS EL CENTRO NAVAL AIR STATION
N/A    - NOT AVAILABLE





USA.gov is the U.S. government's official web portal to all federal, state and local government web resources and services.